Change the Weather History Date:

Monday, February 3, 2014

  Actual Average Record
Temperature  
Mean Temperature 9 °F 24 °F  
Max Temperature 24 °F 33 °F 67 °F (1992)
Min Temperature -7 °F 15 °F -27 °F (1996)
Degree Days  
Heating Degree Days 56 41  
Month to date heating degree days 164 124  
Since 1 July heating degree days 4328 3946  
Cooling Degree Days 0 0  
Month to date cooling degree days 0 0  
Year to date cooling degree days 0 0  
Moisture  
Dew Point 0 °F    
Average Humidity 69    
Maximum Humidity 87    
Minimum Humidity 50    
Precipitation  
Precipitation 0.00 in 0.03 in 0.88 in (1943)
Month to date precipitation 0.11 0.09  
Year to date precipitation 0.23 0.99  
Sea Level Pressure  
Sea Level Pressure 30.37 in    
Wind  
Wind Speed 7 mph (South)    
Max Wind Speed 14 mph    
Max Gust Speed 15 mph    
Visibility 9 miles    
Events      
T = Trace of Precipitation, MM = Missing Value Source: NWS Daily Summary

Daily Weather History Graph

Daily Weather History Graph

Search for Another Location

Airport or City:

Trip Planner

Search our weather history database for the weather conditions in past years. The results will help you decide how hot, cold, wet, or windy it might be!

Date:

Astronomy

Feb. 03, 2014 Rise Set
Actual Time 7:18 AM CST 5:29 PM CST
Civil Twilight 6:49 AM CST 5:58 PM CST
Nautical Twilight 6:16 AM CST 6:31 PM CST
Astronomical Twilight 5:44 AM CST 7:03 PM CST
Moon 9:18 AM CST (2/3) 10:23 PM CST (2/3)
Length of Visible Light 11h 08m
Length of Day
10h 10m
Waxing Crescent, 20% of the Moon is Illuminated
Feb 3
Waxing Crescent
Feb 6
First Quarter
Feb 14
Full
Feb 22
Last Quarter
Mar 1
New

Hourly Weather History & Observations

Time (CST) Temp. Windchill Dew Point Humidity Pressure Visibility Wind Dir Wind Speed Gust Speed Precip Events Conditions
12:53 AM -2.0 °F -10.1 °F -6.0 °F 83% 30.38 in 8.0 mi South 3.5 mph - N/A   Clear
1:53 AM -4.0 °F -14.6 °F -7.1 °F 87% 30.38 in 8.0 mi WSW 4.6 mph - N/A   Clear
2:53 AM -6.0 °F -16.9 °F -9.0 °F 87% 30.40 in 8.0 mi SSW 4.6 mph - N/A   Clear
3:53 AM -6.0 °F -16.9 °F -9.9 °F 83% 30.40 in 6.0 mi South 4.6 mph - N/A   Clear
4:53 AM -2.0 °F -15.4 °F -8.0 °F 76% 30.38 in 8.0 mi South 6.9 mph - N/A   Clear
5:53 AM -0.9 °F -12.7 °F -6.0 °F 79% 30.37 in 10.0 mi South 5.8 mph - N/A   Clear
6:53 AM -2.0 °F -15.4 °F -6.0 °F 83% 30.37 in 10.0 mi South 6.9 mph - N/A   Clear
7:53 AM -0.9 °F -15.3 °F -6.0 °F 79% 30.38 in 8.0 mi South 8.1 mph - N/A   Clear
8:53 AM 1.0 °F -12.9 °F -2.9 °F 83% 30.41 in 8.0 mi South 8.1 mph - N/A   Clear
9:53 AM 7.0 °F -4.5 °F 1.0 °F 77% 30.41 in 10.0 mi South 6.9 mph - N/A   Clear
10:53 AM 14.0 °F 2.0 °F 3.0 °F 62% 30.41 in 10.0 mi South 9.2 mph - N/A   Clear
11:53 AM 18.0 °F 6.1 °F 5.0 °F 57% 30.38 in 10.0 mi South 10.4 mph - N/A   Clear
12:53 PM 19.9 °F 7.9 °F 6.1 °F 55% 30.36 in 10.0 mi South 11.5 mph - N/A   Clear
1:53 PM 21.0 °F 9.3 °F 6.1 °F 53% 30.33 in 10.0 mi South 11.5 mph - N/A   Clear
2:53 PM 23.0 °F 13.1 °F 8.1 °F 53% 30.34 in 10.0 mi South 9.2 mph - N/A   Clear
3:53 PM 23.0 °F 11.7 °F 7.0 °F 50% 30.35 in 10.0 mi South 11.5 mph - N/A   Clear
4:53 PM 19.0 °F 11.1 °F 7.0 °F 59% 30.34 in 10.0 mi SSE 5.8 mph - N/A   Clear
5:53 PM 17.1 °F 7.6 °F 5.0 °F 59% 30.35 in 10.0 mi SSE 6.9 mph - N/A   Clear
6:53 PM 16.0 °F 6.3 °F 3.9 °F 59% 30.33 in 10.0 mi SE 6.9 mph - N/A   Clear
7:53 PM 14.0 °F 3.9 °F 1.9 °F 59% 30.35 in 10.0 mi SSE 6.9 mph - N/A   Clear
8:53 PM 12.9 °F 5.2 °F 1.9 °F 62% 30.35 in 10.0 mi SSE 4.6 mph - N/A   Clear
9:53 PM 16.0 °F 8.8 °F 5.0 °F 62% 30.36 in 10.0 mi SE 4.6 mph - N/A   Overcast
10:53 PM 17.1 °F 11.7 °F 3.9 °F 56% 30.35 in 10.0 mi SSE 3.5 mph - N/A   Overcast
11:53 PM 17.1 °F 11.7 °F 5.0 °F 59% 30.36 in 10.0 mi SSE 3.5 mph - N/A   Overcast